Find Starlink 3324

NORAD ID: 50814 Int'l Des: 2022-001 Owner: SPXS Country: US Constellation: starlink operational
LEOCIRCULAR

現在のビュー

3D地球を読み込み中...

About Starlink 3324

Starlink 3324 (NORAD 50814) is a starlink constellation satellite (v1.5) launched Jan 6, 2022 by SPXS of US. It operates in LEO, CIRCULAR orbit with a mass of 297.00 kg.

Starlink 3324について

説明を読み込み中...

次回通過

Passes for default location (London). Set your location on the main map for personalized predictions.

高度履歴

Loading altitude history...

軌道要素

1 50814U 22001M 26166.47677375 -.00001241 00000-0 -59909-4 0 9996
2 50814 53.1625 90.0537 0001516 96.9353 263.1811 15.08818029245177
Epoch: Jun 15, 2026 • Age: 8 hours

現在のステータス

高度 543.2 km
速度 7.60 km/s
衛星直下点 42.92°N, 66.43°W
打ち上げ日 Jan 6, 2022
運用期間 4.4 years
タイプ internet

技術仕様

分類 Payload
質量 297.00 kg
乾燥質量 275.00 kg
総質量 297.00 kg
長さ 0.20 m
直径 2.80 m
スパン 9.00 m
形状 Box + pan
製造者 SPXS
バスタイプ Starlink
フェーズステータス In Orbit
所有者/国 SPXS/US

Most Searched